Location: Conflandey
(47.7287°N, 6.0456°E)
Time: 03:52:13
(UTC+00:00)

NOSS 2-3 (D) - Pass Details

Date: 24 October 2021
Orbit: 538 x 1672 km, 63.3° (Epoch: 25 November)

Event Time Altitude Azimuth Distance (km) Brightness Sun altitude
Rises 18:09:13 0° 221° (SW) 2,688 7.5 -17.1°
Reaches altitude 10° 18:11:16 10° 223° (SW) 1,828 6.5 -17.5°
Maximum altitude 18:15:16 82° 310° (NW) 613 3.5 -18.1°
Enters shadow 18:18:18 21° 38° (NE) 1,470 5.1 -18.6°
